Flag for U.S.A. Weather past 2 weeks in Santa Barbara, California, U.S.A.

Now
69 °F

Sunny.


Feels Like: 69 °F
Forecast: 65 / 82 °F
Wind: No wind

Location: Santa Barbara Municipal Airport

Current Time: Jul 31, 2014 at 8:37:26 AM

Latest Report: Jul 31, 2014 at 7:53 AM


Visibility: 8 mi

Pressure: 29.92 "Hg

Humidity: 76%

Dew point: 61 °F

Location of Santa BarbaraLocation

Historic Weather in Santa Barbara — Graph

°F

Santa Barbara temperature yesterday

Maximum temperature yesterday: 81 °F (at 2:53 PM)
Minimum temperature yesterday: 66 °F (at 3:53 AM)
Average temperature yesterday: 71 °F

Past Weeks' High & Low Weather Summary

 TemperatureHumidityPressure
High88 °F (Jul 23, 5:53 PM)96% (Jul 26, 4:53 AM)30.08 "Hg (Jul 26, 4:53 AM)
Low57 °F (Jul 23, 5:53 AM)38% (Jul 23, 5:53 PM)29.73 "Hg (Jul 24, 5:53 PM)
Average69 °F74%29.96 "Hg
* Reported Jul 16 6:53 AM — Jul 31 6:53 AM, Santa Barbara, Weather by CustomWeather, © 2014

Note: Actual official high and low records may vary slightly from our data, if they occured in-between our weather recording intervals... More about our weather records

Advertising

Santa Barbara weather history for previous 24 hours

 ConditionsComfort  
Time TempWeatherWind HumidityBarometerVisibility
6:53 AM
Jul 31
66 °FClear.No wind81%29.91 "Hg8 mi
5:53 AM63 °FClear.No wind87%29.90 "Hg9 mi
4:53 AM66 °FClear.5 mph81%29.90 "Hg9 mi
3:53 AM67 °FClear.5 mph81%29.89 "Hg9 mi
2:53 AM68 °FClear.6 mph78%29.89 "Hg9 mi
1:53 AM68 °FClear.No wind82%29.90 "Hg8 mi
12:53 AM68 °FClear.No wind78%29.89 "Hg8 mi
11:53 PM
Jul 30
68 °FClear.6 mph82%29.90 "Hg8 mi
10:53 PM69 °FClear.5 mph79%29.90 "Hg9 mi
9:53 PM68 °FClear.3 mph78%29.90 "Hg10 mi
8:53 PM68 °FSunny.5 mph78%29.89 "Hg10 mi
7:53 PM70 °FSunny.10 mph73%29.88 "Hg9 mi
6:53 PM71 °FSunny.8 mph71%29.88 "Hg10 mi
5:53 PM71 °FSunny.8 mph71%29.88 "Hg10 mi
4:53 PM72 °FSunny.8 mph68%29.88 "Hg10 mi
3:53 PM73 °FSunny.6 mph66%29.90 "Hg10 mi
2:53 PM81 °FSunny.No wind44%29.91 "Hg10 mi
1:53 PM77 °FSunny.8 mph52%29.94 "Hg10 mi
12:53 PM77 °FScattered clouds.8 mph56%29.96 "Hg10 mi
11:53 AM76 °FSunny.7 mph62%29.96 "Hg10 mi
10:53 AM74 °FSunny.6 mph69%29.97 "Hg10 mi
9:53 AM73 °FScattered clouds.3 mph69%29.97 "Hg10 mi
8:53 AM71 °FSunny.No wind73%29.96 "Hg9 mi
Weather by CustomWeather, © 2014

See weather overviewHow to use our weather pages